Location: Angwan Shehu
(11.2514°N, 7.4613°E)
Time: 02:05:11
(UTC+00:00)

N. Korean satellite - Pass Details

Date: 07 March 2021
Orbit: 453 x 499 km, 97.2° (Epoch: 11 April)

Event Time Altitude Azimuth Distance (km) Brightness Sun altitude
Rises 05:19:43 0° 345° (NNW) 2,547 10.0 -6.3°
Reaches altitude 10° 05:22:18 10° 325° (NW) 1,676 8.9 -5.6°
Maximum altitude 05:24:42 17° 283° (WNW) 1,301 8.1 -5.0°
Drops below altitude 10° 05:27:08 10° 241° (WSW) 1,689 8.8 -4.4°
Sets 05:29:46 0° 221° (SW) 2,576 9.9 -3.8°
